NIMBUS 2 DEB, 28613

Orbit data source: Space-Track

NIMBUS 2 DEB, 28613 is space debris in LEO originally from a launch on Sun, 15 May 1966 UTC launched from the Air Force Western Test Range (AFWTR). Debris objects in space refer to the collection of defunct objects orbiting the Earth. Examples of debris include non-operational satellites, rocket bodies, and fragments generated from explosions, collisions, or faulty payload assembly.

Loading next visibility...
NIMBUS 2 DEB details
Identifier
28613, 1966-040AC
Orbit
LEO
Last TLE update1 day ago
Origin
Flag of USGSFC (US)
ManufacturerUnknown
MissionSpacecraft
Bus & MotorUnknown
MassUnknown
Launch date (UTC)
1966-05-15 (59 years ago)
Launch vehicleUnknown
Launch site
Air Force Western Test Range (AFWTR)
Object type
Payload
Rocket body
Debris
Shape & HBRUnknown
Radar Cross SectionSmall (<0.1 m²)

Expand to show TLE details & history

TLE from 1 day ago
0 NIMBUS 2 DEB
1 28613U 66040AC  24347.24658804  .00005096  00000-0  59750-2 0  9991
2 28613 100.3965  94.5362 0047907 153.3215 237.8575 13.68286041567747
Epoch: 2024-12-12T05:55Z
Definitive object data (Epoch: 2024-12-12T05:55:05.206Z)
Latitude30.21044°
Longitude-81.76585°
Altitude1,028.35 km
Speed7.331 km/s
True Right ascension05h 53m 44s
True Declination30° 03' 60"
Sunlit
Object was in full shadow at TLE epoch
Visualization TLE readout
Latitude-30.37713°
Longitude99.64808°
Altitude999.499 km
Speed7.36 km/s
Apparent Right ascension20h 48m 45s
Apparent Declination-47° 44' 15"
Sunlit
Object is in daylight
Visualization observer readout
Local Sidereal Time12:53:19
Azimuth121.386° SE
Elevation-46.374°
Doppler factor1
Orbital elements
Apogee altitude1,038.406 km
Perigee altitude967.684 km
Semi-major axis7,381.182 km
Eccentricity0.0047907
Inclination100.3965°
RAAN94.5362°
Arg. of periapsis153.3215°
True anomaly237.39415°
Mean anomaly237.8575°
Eccentric anomaly237.62568°
Mean motion3.42259 °/min
BSTAR0.005975
Orbital period105.18 mins
Loading maneuver chart data...
Loading historical data...
Loading historical data...
Loading historical data...
Loading historical data...
Loading historical data...
Loading historical data...
Loading historical data...

NIMBUS 2 DEB Visibility forecast

Observer location: undefined°, undefined

Span
Click to sort rows by Start time (UTC) header in descending order
Start Az.
Max El. time (UTC)
Max El. Az.
Max El.
End time (UTC)
End Az.
8 mins2024-12-13 19:14:44.577Z48.681° ENE2024-12-13 19:18:44.577Z96.901° ESE22.603°2024-12-13 19:22:44.577Z143.969° SSE
9 mins2024-12-13 20:58:44.577Z357.044° N2024-12-13 21:02:44.577Z286.706° WNW37.111°2024-12-13 21:07:44.577Z221.16° SW
10 mins2024-12-14 07:01:44.577Z153.202° SSE2024-12-14 07:06:44.577Z47.52° ENE43.683°2024-12-14 07:11:44.577Z349.042° N
5 mins2024-12-14 08:48:44.577Z246.361° WSW2024-12-14 08:50:44.577Z268.384° W16.106°2024-12-14 08:53:44.577Z299.594° NW
|